[[{"header":{"parameterUnit":"m.s-1","parameterCategory":1,"la1":30.2991,"la2":30.254,"lo1":-89.0895,"lo2":-89.0444,"dy":0.0017,"dx":0.0017,"nx":28,"ny":28,"refTime":"2025-06-15T21:00:00:Z","depth":0,"parameterNumber":2,"parameterNumberName":"U-component_of_WINDS"},"data":[0,0,0,0,0,0,0,0,0,0,0,0,0,0,0,0,0,0,0,0,0,0,0,0,0,0,0,0,0,0,0,0,0,0,0,0,0,0,0,0,0,0,0,0,0,0,0,0,0,0,0,0,0,0,0,0,0,0,-1.0331,-1.033,0,-1.027,-1.0269,-1.0269,-1.023,-1.023,-1.023,-1.023,-1.0163,-1.0161,-1.0159,0,0,0,0,0,0,0,0,0,0,0,0,0,-1.041,-1.0409,-1.0331,-1.033,-1.033,-1.027,-1.0269,-1.0268,-1.023,-1.023,-1.023,-1.023,-1.0163,-1.0161,-1.0159,0,0,0,0,0,0,0,0,0,0,0,0,0,-1.0365,-1.0408,-1.0331,-1.0303,-1.03,-1.027,-1.0269,-1.0268,-1.023,-1.023,-1.023,-1.0229,-1.0164,-1.0161,-1.0159,-1.015,0,0,-1.0152,-1.0151,0,0,0,0,0,0,0,0,-1.0367,-1.0362,-1.0308,-1.0305,-1.0302,-1.0258,-1.0272,-1.0229,-1.023,-1.0257,-1.023,-1.0229,-1.0194,-1.0189,-1.0178,-1.0147,-1.0144,-1.0152,-1.015,-1.0149,-1.0148,0,0,0,0,0,0,0,-1.0371,-1.0364,-1.0307,-1.0308,-1.0304,-1.0292,-1.0286,-1.0264,-1.0228,-1.0254,-1.0252,-1.0245,-1.0192,-1.0181,-1.0176,-1.0143,-1.0152,-1.0149,-1.0148,-1.0147,-1.0101,-1.0101,0,0,0,0,0,0,-1.0379,-1.0367,-1.0309,-1.0305,-1.0335,-1.0291,-1.0284,-1.0272,-1.0228,-1.0221,-1.0245,-1.0244,-1.0185,-1.0179,-1.0174,-1.016,-1.0149,-1.0147,-1.0145,-1.01,-1.0101,-1.0101,0,0,0,0,0,0,-1.0381,-1.0374,-1.0311,-1.0335,-1.0326,-1.029,-1.0277,-1.0271,-1.0259,-1.0221,-1.0214,-1.0241,-1.0184,-1.0177,-1.0157,-1.0157,-1.0146,-1.0144,-1.01,-1.0101,-1.0101,-1.0133,0,0,0,0,0,0,-1.0383,-1.0375,-1.0372,-1.0336,-1.0325,-1.0296,-1.0277,-1.027,-1.0256,-1.0253,-1.0215,-1.0208,-1.0184,-1.016,-1.0154,-1.0154,-1.0142,-1.01,-1.01,-1.0101,-1.0131,-1.0134,-1.0136,0,0,0,0,0,-1.0386,-1.0383,-1.0372,-1.0366,-1.0322,-1.0297,-1.029,-1.0264,-1.0256,-1.0252,-1.0228,-1.0209,-1.0158,-1.0159,-1.0151,-1.015,-1.01,-1.01,-1.0101,-1.013,-1.0133,-1.0136,0,0,0,0,0,0,-1.0419,-1.0378,-1.0365,-1.0351,-1.0328,-1.029,-1.0285,-1.0268,-1.0246,-1.0244,-1.021,-1.0202,-1.0184,-1.0165,-1.0166,-1.0139,-1.0127,-1.0126,-1.0152,-1.0154,-1.0157,-1.0161,-1.014,0,0,0,0,0,-1.0425,-1.041,-1.0374,-1.0364,-1.0353,-1.0321,-1.0309,-1.0291,-1.0265,-1.0254,-1.0228,-1.0202,-1.018,-1.0166,-1.0144,-1.0129,-1.0119,-1.0124,-1.0126,-1.0129,-1.0128,-1.0117,-1.0118,-1.0102,-1.0102,-1.0102,0,0,-1.0436,-1.0412,-1.0404,-1.037,-1.035,-1.0333,-1.0313,-1.0296,-1.0283,-1.0251,-1.023,-1.021,-1.0179,-1.0161,-1.0151,-1.0144,-1.013,-1.0129,-1.0131,-1.0129,-1.0117,-1.0119,-1.012,-1.0103,-1.0103,-1.0103,0,0,-1.0448,-1.0429,-1.0418,-1.0399,-1.0369,-1.0348,-1.0346,-1.0311,-1.0296,-1.0275,-1.0251,-1.0234,-1.0197,-1.0175,-1.016,-1.0164,-1.0145,-1.0157,-1.0169,-1.0159,-1.016,-1.0161,-1.0161,-1.0162,-1.0157,-1.0157,-1.0157,0,-1.0466,-1.0441,-1.0415,-1.0399,-1.0384,-1.0357,-1.0345,-1.0327,-1.0291,-1.028,-1.0273,-1.0226,-1.0203,-1.0179,-1.018,-1.0169,-1.0163,-1.0161,-1.0163,-1.0163,-1.0164,-1.0163,-1.0164,-1.0158,-1.0158,-1.0158,-1.0158,0,-1.0463,-1.0446,-1.0441,-1.0408,-1.0393,-1.0379,-1.035,-1.0337,-1.032,-1.0299,-1.0277,-1.0248,-1.022,-1.0213,-1.0195,-1.0185,-1.0182,-1.0169,-1.0157,-1.0167,-1.0166,-1.0166,-1.0161,-1.016,-1.016,-1.0159,0,0,-1.0493,-1.0447,-1.0445,-1.043,-1.0395,-1.0381,-1.0365,-1.0339,-1.0328,-1.0304,-1.0289,-1.0258,-1.0247,-1.0229,-1.0209,-1.02,-1.0203,-1.0188,-1.0187,-1.0191,-1.0189,-1.0198,-1.0198,-1.0191,-1.0191,-1.0191,-1.0191,0,-1.0499,-1.0472,-1.0448,-1.0428,-1.0411,-1.0385,-1.0371,-1.0347,-1.0327,-1.0309,-1.0286,-1.0265,-1.0251,-1.024,-1.023,-1.0205,-1.0202,-1.0205,-1.0175,-1.0174,-1.0183,-1.0198,-1.0207,-1.0209,-1.0191,-1.0191,-1.0191,0,-1.0502,-1.0481,-1.046,-1.0427,-1.0419,-1.0407,-1.038,-1.0364,-1.0336,-1.0322,-1.0302,-1.0281,-1.0262,-1.0252,-1.0224,-1.0226,-1.0213,-1.0198,-1.0198,-1.0193,-1.0183,-1.0192,-1.0209,-1.0209,-1.019,-1.019,-1.019,0,-1.0525,-1.0491,-1.0474,-1.0462,-1.0423,-1.0415,-1.0398,-1.037,-1.0355,-1.0331,-1.0321,-1.0295,-1.028,-1.0259,-1.0231,-1.0227,-1.0205,-1.0193,-1.0191,-1.0192,-1.0187,-1.0188,-1.0201,-1.0181,-1.0181,-1.0181,-1.0181,0,-1.0533,-1.0521,-1.0484,-1.0473,-1.0459,-1.043,-1.0416,-1.0397,-1.0372,-1.0356,-1.0331,-1.0316,-1.0281,-1.0261,-1.0239,-1.0218,-1.0212,-1.0198,-1.0192,-1.02,-1.0202,-1.019,-1.0189,-1.0181,-1.0181,-1.0181,-1.0181,0,-1.0556,-1.053,-1.051,-1.0475,-1.0466,-1.0457,-1.0426,-1.0414,-1.0393,-1.0372,-1.0366,-1.0332,-1.0308,-1.0278,-1.0244,-1.0229,-1.021,-1.0201,-1.0219,-1.0216,-1.0215,-1.0215,-1.022,-1.0219,-1.0201,-1.0201,-1.0201,0,-1.0562,-1.0553,-1.0517,-1.0505,-1.049,-1.0471,-1.0456,-1.0428,-1.0413,-1.038,-1.0372,-1.0346,-1.0323,-1.0285,-1.0256,-1.0229,-1.022,-1.0223,-1.0215,-1.0223,-1.0218,-1.0219,-1.0217,-1.0225,-1.0225,-1.0225,-1.0226,0,-1.0576,-1.0564,-1.0544,-1.052,-1.0504,-1.0483,-1.0461,-1.0452,-1.0419,-1.0403,-1.0379,-1.0362,-1.0327,-1.0301,-1.0271,-1.0251,-1.0232,-1.0229,-1.0226,-1.0234,-1.0244,-1.0237,-1.0224,-1.0228,-1.0228,-1.0228,-1.0228,-1.0228,-1.059,-1.058,-1.0553,-1.0532,-1.0513,-1.0493,-1.048,-1.0457,-1.0437,-1.0408,-1.0392,-1.0368,-1.0339,-1.0296,-1.0277,-1.0257,-1.025,-1.0247,-1.0246,-1.0246,-1.0248,-1.0249,-1.0251,-1.0251,-1.0251,-1.0251,-1.0251,0,-1.0601,-1.0583,-1.0564,-1.0535,-1.0518,-1.0503,-1.0478,-1.0464,-1.0444,-1.042,-1.0398,-1.037,-1.0344,-1.0314,-1.0286,-1.0275,-1.0266,-1.0269,-1.0268,-1.0264,-1.0256,-1.026,-1.0277,-1.0277,-1.0277,-1.0277,-1.0277,-1.0277,-1.0605,-1.0587,-1.0572,-1.0544,-1.0525,-1.0502,-1.0489,-1.047,-1.045,-1.042,-1.0399,-1.038,-1.0353,-1.0323,-1.0298,-1.029,-1.028,-1.0285,-1.0274,-1.0267,-1.0265,-1.0262,-1.0266,-1.0284,-1.0284,-1.0284,-1.0284,-1.0284]},{"header":{"parameterUnit":"m.s-1","parameterCategory":1,"la1":30.2991,"la2":30.254,"lo1":-89.0895,"lo2":-89.0444,"dy":0.0017,"dx":0.0017,"nx":28,"ny":28,"refTime":"2025-06-15T21:00:00:Z","depth":0,"parameterNumber":3,"parameterNumberName":"V-component_of_WINDS"},"data":[0,0,0,0,0,0,0,0,0,0,0,0,0,0,0,0,0,0,0,0,0,0,0,0,0,0,0,0,0,0,0,0,0,0,0,0,0,0,0,0,0,0,0,0,0,0,0,0,0,0,0,0,0,0,0,0,0,0,-0.315,-0.3151,0,-0.3235,-0.3236,-0.3237,-0.3253,-0.3253,-0.3252,-0.3251,-0.3338,-0.3341,-0.3343,0,0,0,0,0,0,0,0,0,0,0,0,0,-0.3002,-0.3005,-0.315,-0.3151,-0.3152,-0.3235,-0.3236,-0.3237,-0.3253,-0.3252,-0.3252,-0.3251,-0.3337,-0.334,-0.3344,0,0,0,0,0,0,0,0,0,0,0,0,0,-0.3074,-0.3005,-0.315,-0.317,-0.3173,-0.3234,-0.3236,-0.3237,-0.3253,-0.3252,-0.3251,-0.3251,-0.3336,-0.334,-0.3344,-0.3391,0,0,-0.3358,-0.336,0,0,0,0,0,0,0,0,-0.307,-0.308,-0.3166,-0.3169,-0.3172,-0.3232,-0.3215,-0.3289,-0.3254,-0.3223,-0.3251,-0.325,-0.3304,-0.331,-0.3328,-0.3395,-0.3399,-0.3358,-0.3361,-0.3363,-0.3364,0,0,0,0,0,0,0,-0.3065,-0.3076,-0.3184,-0.3168,-0.3171,-0.3175,-0.3184,-0.3229,-0.3268,-0.3226,-0.3227,-0.3237,-0.3305,-0.3324,-0.3331,-0.34,-0.3358,-0.3362,-0.3364,-0.3366,-0.3508,-0.3509,0,0,0,0,0,0,-0.3057,-0.3072,-0.3181,-0.3186,-0.3118,-0.3178,-0.3189,-0.3214,-0.3267,-0.3274,-0.3237,-0.3237,-0.3317,-0.3326,-0.3334,-0.3391,-0.3363,-0.3367,-0.3369,-0.3507,-0.3508,-0.3509,0,0,0,0,0,0,-0.3053,-0.3066,-0.3178,-0.3129,-0.3144,-0.3182,-0.321,-0.3216,-0.3236,-0.3276,-0.3283,-0.325,-0.3317,-0.3328,-0.3376,-0.3395,-0.3369,-0.3373,-0.3505,-0.3507,-0.3509,-0.3507,0,0,0,0,0,0,-0.3049,-0.3065,-0.3084,-0.313,-0.3146,-0.3219,-0.3212,-0.3219,-0.3243,-0.3244,-0.329,-0.3297,-0.3317,-0.337,-0.3381,-0.34,-0.3376,-0.3504,-0.3506,-0.3508,-0.3506,-0.3509,-0.3511,0,0,0,0,0,-0.3044,-0.308,-0.3085,-0.3098,-0.3171,-0.322,-0.323,-0.3252,-0.3245,-0.3263,-0.3289,-0.3295,-0.3391,-0.3375,-0.3387,-0.3408,-0.3503,-0.3505,-0.3508,-0.3505,-0.3508,-0.3511,0,0,0,0,0,0,-0.3036,-0.3087,-0.3092,-0.3145,-0.3178,-0.3223,-0.3247,-0.3255,-0.3291,-0.329,-0.3316,-0.3326,-0.3374,-0.3396,-0.3377,-0.3455,-0.3446,-0.3451,-0.3439,-0.3443,-0.3446,-0.3439,-0.338,0,0,0,0,0,-0.304,-0.3076,-0.3119,-0.3161,-0.3177,-0.3209,-0.3232,-0.3246,-0.3281,-0.3296,-0.3325,-0.3359,-0.3397,-0.3421,-0.3458,-0.3509,-0.3519,-0.3529,-0.3532,-0.3534,-0.3538,-0.3565,-0.357,-0.3518,-0.3518,-0.3518,0,0,-0.3049,-0.3082,-0.3103,-0.316,-0.3188,-0.3224,-0.3221,-0.326,-0.3287,-0.3302,-0.3349,-0.3372,-0.3412,-0.3461,-0.3485,-0.3481,-0.3554,-0.3537,-0.3538,-0.3542,-0.3568,-0.3573,-0.3578,-0.3519,-0.3519,-0.3519,0,0,-0.3085,-0.3113,-0.3151,-0.3178,-0.322,-0.3241,-0.3249,-0.3293,-0.3308,-0.3357,-0.3368,-0.34,-0.3464,-0.3492,-0.3514,-0.3558,-0.3565,-0.3569,-0.3583,-0.3609,-0.3613,-0.3617,-0.3632,-0.3637,-0.3573,-0.3573,-0.3573,0,-0.3092,-0.3147,-0.317,-0.3208,-0.3232,-0.3246,-0.3284,-0.3309,-0.336,-0.3377,-0.3372,-0.3452,-0.348,-0.3535,-0.3546,-0.3563,-0.3574,-0.3564,-0.3611,-0.3615,-0.3619,-0.3633,-0.3639,-0.3573,-0.3573,-0.3573,-0.3573,0,-0.3153,-0.3191,-0.3217,-0.3265,-0.3292,-0.333,-0.3357,-0.3382,-0.3393,-0.3414,-0.3462,-0.3495,-0.3539,-0.3553,-0.3564,-0.361,-0.3606,-0.3606,-0.3597,-0.3624,-0.3638,-0.3644,-0.3574,-0.3574,-0.3573,-0.3573,0,0,-0.3188,-0.3246,-0.3255,-0.3277,-0.3323,-0.3353,-0.339,-0.3432,-0.3452,-0.3487,-0.3519,-0.3572,-0.3571,-0.3596,-0.3611,-0.3634,-0.3665,-0.3631,-0.3632,-0.3636,-0.3716,-0.3716,-0.3722,-0.367,-0.3671,-0.3672,-0.3713,0,-0.3228,-0.3297,-0.3317,-0.3374,-0.3409,-0.3422,-0.3454,-0.3485,-0.3506,-0.3538,-0.356,-0.3597,-0.3594,-0.3609,-0.3632,-0.3657,-0.3682,-0.3654,-0.3699,-0.3701,-0.3689,-0.373,-0.373,-0.3767,-0.3718,-0.3719,-0.372,0,-0.3286,-0.332,-0.3381,-0.3421,-0.3436,-0.3465,-0.3504,-0.3535,-0.357,-0.3583,-0.361,-0.3622,-0.3661,-0.365,-0.3704,-0.3684,-0.3704,-0.3718,-0.372,-0.3725,-0.3712,-0.3736,-0.378,-0.3785,-0.3729,-0.3728,-0.3728,0,-0.3304,-0.3366,-0.341,-0.3428,-0.3475,-0.3495,-0.3516,-0.355,-0.3573,-0.3608,-0.3623,-0.3661,-0.3682,-0.3711,-0.3732,-0.3722,-0.3784,-0.3774,-0.3795,-0.3795,-0.3808,-0.3807,-0.3855,-0.3821,-0.382,-0.382,-0.382,0,-0.3348,-0.3384,-0.3418,-0.3445,-0.3486,-0.3508,-0.3548,-0.3569,-0.3599,-0.3629,-0.3643,-0.3671,-0.3698,-0.373,-0.3747,-0.3788,-0.3798,-0.3809,-0.3813,-0.3808,-0.3806,-0.3821,-0.3819,-0.3822,-0.3822,-0.3821,-0.3821,0,-0.3375,-0.34,-0.3448,-0.3489,-0.35,-0.3528,-0.3562,-0.3589,-0.3608,-0.3647,-0.3657,-0.3689,-0.3727,-0.3751,-0.38,-0.3811,-0.3856,-0.3859,-0.3844,-0.3846,-0.3865,-0.3863,-0.3925,-0.3934,-0.3893,-0.3893,-0.3894,0,-0.3402,-0.343,-0.3473,-0.3494,-0.3515,-0.355,-0.3573,-0.3596,-0.362,-0.366,-0.3681,-0.372,-0.3752,-0.3812,-0.3839,-0.3876,-0.388,-0.3899,-0.3886,-0.3879,-0.388,-0.3878,-0.388,-0.3901,-0.3902,-0.3902,-0.3902,0,-0.3445,-0.3456,-0.3489,-0.3527,-0.3554,-0.3585,-0.3615,-0.3632,-0.3659,-0.3685,-0.3724,-0.3749,-0.3798,-0.3836,-0.3875,-0.3895,-0.3903,-0.3906,-0.3913,-0.3908,-0.3897,-0.3903,-0.385,-0.3905,-0.3904,-0.3904,-0.3904,-0.3904,-0.3473,-0.3498,-0.3532,-0.3568,-0.3593,-0.3621,-0.3647,-0.367,-0.3703,-0.3744,-0.3755,-0.3795,-0.3828,-0.3881,-0.3902,-0.3934,-0.3931,-0.3941,-0.3944,-0.3946,-0.3945,-0.3892,-0.3941,-0.3941,-0.3941,-0.3941,-0.3941,0,-0.3517,-0.3539,-0.3572,-0.3614,-0.3642,-0.3647,-0.368,-0.3704,-0.3739,-0.3769,-0.38,-0.3843,-0.388,-0.3909,-0.3946,-0.3965,-0.397,-0.3974,-0.3973,-0.3978,-0.3946,-0.3936,-0.397,-0.397,-0.397,-0.397,-0.397,-0.397,-0.3543,-0.3585,-0.3599,-0.3654,-0.3675,-0.3715,-0.3733,-0.3759,-0.3782,-0.3831,-0.3861,-0.3879,-0.3908,-0.3948,-0.3981,-0.3988,-0.4001,-0.4005,-0.4013,-0.3983,-0.398,-0.3977,-0.3968,-0.4008,-0.4008,-0.4042,-0.4042,-0.4043]}]]